Lapse_Rate
-1.1 -1.3 -1.6 -1.9 -2.3 -2.6 -2.9 -3.0 -3.1 -3.4 -3.5 -3.8 -4.0 -4.3 -4.5 -5.0 -4.5 1.0 4.9 6.1 4.4 0.7 2.2 3.2 4.1 6.0 7.0 8.0 8.3 8.1 6.5 6.5 6.5 6.5 6.5 7.1 6.6 7.6 7.9 7.5 7.7 7.9 7.7 7.9 7.8
-1.0 -1.4 -1.6 -1.9 -1.9 -2.1 -2.6 -3.1 -3.3 -3.6 -3.8 -3.9 -4.1 -4.1 -4.5 -4.7 -0.7 2.9 3.8 1.5 1.0 1.1 5.2 5.9 6.7 6.1 7.4 7.6 7.8 6.8 6.5 6.5 6.6 6.6 6.5 6.8 6.9 7.1 7.0 7.1 7.2 7.4 7.9 6.6 8.0
-1.3 -1.2 -1.6 -1.7 -1.9 -2.1 -2.4 -2.6 -3.1 -3.6 -4.0 -4.2 -4.3 -4.2 -4.2 -4.0 4.5 7.0 3.4 -0.4 0.3 1.5 6.2 6.7 7.2 7.8 7.2 7.6 7.2 6.8 6.5 6.5 6.8 7.1 7.2 6.7 6.9 7.3 6.9 6.5 7.2 7.3 7.7 7.9 8.3
-1.4 -1.4 -1.5 -1.7 -1.8 -2.1 -2.4 -2.6 -2.9 -3.4 -3.9 -4.2 -4.2 -4.1 -4.1 0.2 6.5 6.4 1.4 -0.1 0.0 3.5 5.5 6.8 7.1 7.3 6.7 6.6 7.3 6.5 6.8 6.8 7.0 7.3 7.1 6.7 7.3 6.8 7.1 6.0 7.9 6.5 6.9 8.0 8.1
-1.1 -1.7 -2.1 -2.4 -2.4 -2.3 -2.3 -2.7 -3.1 -3.5 -3.7 -3.8 -3.8 -3.7 0.8 6.0 5.7 4.9 2.3 1.5 2.6 3.8 5.8 7.0 7.2 7.2 6.6 6.8 6.9 6.5 6.6 7.1 7.2 7.2 7.2 7.3 6.8 6.7 7.0 7.1 8.1 8.1 7.9 8.0 8.2
-1.4 -1.6 -2.0 -2.5 -2.8 -2.9 -2.9 -3.3 -3.6 -3.6 -3.6 -3.3 -3.2 -3.2 4.1 6.8 5.2 4.0 3.4 4.7 5.4 5.8 6.6 6.8 7.5 7.1 7.1 6.8 6.6 7.0 6.8 6.9 7.1 7.0 7.2 6.7 6.7 7.0 7.2 7.9 7.8 7.9 7.9 8.1 8.1
-1.2 -1.9 -2.2 -2.6 -3.2 -3.4 -3.8 -4.2 -4.5 -4.0 -3.6 -3.2 -2.8 -0.3 4.7 5.3 4.6 3.1 3.0 5.1 6.0 6.4 6.8 6.6 7.0 7.6 7.5 6.5 7.6 7.0 6.5 6.5 6.6 6.9 6.5 7.1 6.5 6.5 7.4 7.8 7.6 7.9 8.0 8.1 8.4
-0.9 -1.5 -1.5 -2.0 -3.2 -3.7 -3.9 -4.7 -4.7 -3.9 -3.3 -2.8 -2.4 1.3 5.5 3.9 2.9 3.1 3.9 5.1 4.4 5.0 5.4 5.9 6.5 6.9 7.4 7.6 7.0 6.5 6.5 6.6 6.4 6.6 6.8 6.8 6.6 6.5 7.6 7.5 7.4 7.7 7.9 7.9 8.1
-0.6 -0.8 -1.4 -2.2 -3.3 -4.0 -4.6 -5.2 -4.6 -2.6 -2.3 -2.1 1.4 4.0 6.5 4.3 5.1 5.2 4.2 6.6 5.8 5.9 5.3 6.4 7.0 7.3 7.4 6.4 6.5 6.5 6.6 6.4 6.5 6.7 6.5 6.5 6.5 6.6 7.6 7.4 7.3 7.6 7.8 7.9 8.0
-0.8 -1.5 -1.9 -2.4 -3.5 -4.6 -5.5 -5.6 -4.0 -2.3 -0.6 0.7 3.2 5.8 5.8 6.8 6.1 5.3 3.8 5.1 7.1 6.8 7.2 7.4 7.1 6.6 6.5 6.5 6.5 6.6 6.6 6.6 6.6 6.5 6.5 6.5 6.5 6.5 7.4 7.3 7.2 7.5 7.7 7.9 8.0
-0.9 -1.5 -2.1 -2.5 -3.7 -5.1 -4.6 1.2 5.4 5.7 4.2 6.6 6.4 5.9 5.6 6.4 4.9 6.2 5.7 6.2 7.1 7.2 6.5 7.0 6.4 6.5 6.5 6.4 6.4 6.5 6.5 6.5 6.5 6.6 6.5 6.5 6.5 6.5 7.0 7.2 7.0 7.4 7.6 7.8 8.0
-0.9 -1.8 -2.3 -2.9 -4.0 -5.0 -3.9 5.2 3.9 5.0 6.9 4.5 4.6 4.7 4.5 6.3 7.2 6.4 6.1 7.3 7.0 6.5 6.6 6.5 6.5 6.5 6.5 6.4 6.5 6.5 6.5 6.5 6.5 6.5 6.5 6.5 6.5 6.5 6.7 6.8 7.2 7.3 7.5 7.7 8.0
-0.9 -1.7 -2.5 -3.0 -4.5 -2.1 -0.5 3.7 1.9 4.3 7.0 6.7 5.6 5.9 6.1 6.3 7.1 6.5 6.6 6.4 6.6 6.4 6.5 6.5 6.6 6.5 6.6 6.5 6.5 6.5 6.5 6.5 6.5 6.5 6.5 6.5 6.5 6.5 6.6 7.0 7.3 7.7 7.8 7.9 8.0
-1.0 -1.7 -2.5 -4.0 -0.3 -1.7 3.8 1.7 0.7 2.3 6.4 6.5 6.7 7.1 6.2 6.2 6.8 6.0 6.3 7.2 6.6 6.4 6.5 6.5 6.6 6.5 6.5 6.4 6.5 6.5 6.6 6.5 6.5 6.5 6.5 6.5 6.4 6.5 6.5 6.5 6.4 7.2 7.6 7.8 7.9
-1.0 -1.7 -2.6 -3.9 -0.8 2.2 2.8 -0.4 1.2 4.2 6.5 6.5 6.7 6.5 5.9 7.1 7.2 6.7 5.5 6.9 6.5 6.5 6.5 6.5 6.4 6.5 6.5 6.5 6.4 6.5 6.5 6.5 6.5 6.5 6.5 6.5 6.5 6.5 6.4 6.5 6.5 6.8 7.3 7.6 7.7
-1.2 -2.0 -3.3 -3.4 -3.6 -0.3 -1.3 0.1 4.1 6.5 6.5 6.5 6.9 6.5 6.5 6.9 6.9 7.1 7.2 6.9 7.0 6.5 6.5 6.5 7.0 6.5 6.5 6.5 6.5 6.4 6.5 6.5 6.5 6.5 6.5 6.5 6.6 6.5 6.5 6.5 6.5 6.8 7.4 7.6 7.8
-1.8 -2.8 -4.1 -2.9 4.0 -2.0 -0.6 5.3 6.5 6.5 6.5 6.5 6.5 6.5 6.5 6.5 6.5 6.6 6.5 6.5 6.5 6.5 6.5 6.5 6.4 6.5 6.7 6.4 6.5 6.4 6.5 6.5 6.4 6.5 6.5 6.5 6.5 6.5 6.5 6.6 6.6 6.6 7.1 7.5 7.7
-2.8 -4.5 -4.2 -2.9 -2.7 -2.2 3.0 6.6 6.5 6.5 6.5 6.5 6.5 6.5 6.5 6.5 6.5 6.5 6.5 6.5 6.5 6.5 6.5 6.5 6.5 6.5 6.5 6.5 6.5 6.5 6.5 6.5 6.5 6.5 6.5 6.5 6.5 6.5 6.5 6.8 7.1 7.3 7.4 7.6 7.6
-3.7 -1.5 -1.4 -0.3 -3.2 -2.1 6.8 6.5 6.5 6.5 6.6 6.6 6.5 6.5 6.5 6.5 6.5 6.5 6.5 6.5 6.5 6.5 6.5 6.4 6.5 6.5 6.4 6.5 6.5 6.5 6.6 6.5 6.5 6.5 6.5 6.5 6.5 6.5 6.5 6.5 6.8 7.0 7.2 7.3 7.6
-1.5 0.4 3.4 -1.1 -2.2 3.4 6.6 6.5 6.5 6.6 6.5 6.5 6.5 6.5 6.5 6.5 6.6 6.5 6.4 6.4 6.5 6.5 6.7 6.5 6.5 6.5 6.5 6.7 6.6 6.6 6.6 6.5 6.5 6.5 6.5 6.5 6.5 6.5 6.5 6.5 6.5 6.5 6.9 7.4 7.5
0.8 6.1 3.1 -1.1 1.0 6.8 6.5 6.5 6.4 7.1 7.0 6.6 6.5 6.5 6.5 6.5 6.5 6.5 6.5 6.5 6.5 6.5 6.7 6.5 6.5 6.4 6.5 6.5 6.5 6.5 6.5 6.5 6.5 6.5 6.5 6.5 6.5 6.5 6.5 6.5 6.6 6.6 7.1 7.4 7.7
2.3 6.5 3.9 1.7 6.8 6.9 6.5 6.5 5.9 6.7 7.2 6.5 6.5 6.6 6.5 6.5 6.5 6.5 6.5 6.5 6.8 6.9 6.5 6.5 6.5 6.5 6.5 6.4 6.5 6.5 6.5 6.5 6.5 6.5 6.5 6.4 6.6 6.5 6.6 6.5 6.8 6.9 7.2 7.3 7.6
5.0 5.0 4.1 4.2 6.5 6.5 6.7 6.4 6.8 6.6 6.5 6.5 6.5 6.5 6.5 6.6 6.5 6.5 6.5 6.8 6.9 6.5 6.5 6.5 6.5 6.5 6.5 6.5 6.5 6.5 6.5 6.5 6.5 6.5 6.5 6.6 6.5 6.5 6.5 6.6 6.9 6.9 7.0 6.5 6.5
5.2 6.5 6.9 5.8 5.4 6.6 6.4 6.4 6.5 7.1 6.7 6.8 6.5 6.6 6.5 6.6 6.5 6.5 6.5 6.6 7.0 6.8 4.6 6.2 6.5 6.5 6.5 6.5 6.5 6.5 6.5 6.5 6.5 6.5 6.5 6.5 6.5 6.5 6.5 6.5 6.8 7.1 7.2 7.2 6.3
5.1 6.7 6.6 6.5 6.7 6.5 6.5 6.5 6.5 6.4 6.8 7.0 6.5 6.5 6.5 6.5 6.5 6.5 6.5 6.5 6.6 5.9 6.7 6.5 6.5 6.6 6.5 6.5 6.5 6.5 6.5 6.5 6.5 6.5 6.5 6.5 6.6 6.5 6.5 6.5 6.8 7.2 7.3 7.3 7.4
7.2 7.1 6.0 6.9 7.1 6.5 6.5 6.5 6.4 6.5 6.5 6.5 6.5 6.5 6.6 6.5 6.5 6.6 6.5 6.5 6.5 6.5 6.5 6.5 6.4 6.5 6.5 6.5 6.5 6.6 6.5 6.5 6.5 6.5 6.5 6.5 6.5 6.5 6.9 7.1 7.0 7.1 7.2 7.1 7.5
4.5 4.8 6.9 6.1 6.6 6.5 6.5 6.5 6.5 6.6 6.8 7.0 6.7 6.5 6.5 6.5 7.0 7.2 7.4 7.1 6.7 6.5 6.5 6.5 6.5 6.5 6.6 6.6 6.5 6.5 6.5 6.5 6.5 6.5 6.5 6.5 6.5 6.5 6.6 6.5 6.8 7.2 7.3 7.3 7.5
Wind_Speed
14 14 15 15 16 16 16 17 17 18 19 21 23 22 21 23 18 2 5 2 2 19 12 8 4 4 4 4 3 2 1 1 3 4 2 4 4 4 2 11 4 5 6 12 22
15 16 16 16 16 16 16 17 17 18 19 20 21 22 20 20 5 6 7 10 4 17 7 6 3 6 2 1 3 2 0 3 2 1 2 3 5 9 3 9 4 11 15 22 21
15 15 16 16 17 16 16 17 17 17 18 19 20 20 18 15 5 2 12 10 13 16 1 3 3 4 4 3 2 2 1 3 3 1 3 5 7 5 8 3 6 12 21 21 20
15 15 15 15 15 16 16 17 17 17 17 18 19 20 20 2 1 1 12 6 9 5 3 3 3 4 3 3 2 1 2 1 2 3 2 3 6 5 7 8 5 20 24 21 21
17 17 17 17 18 17 17 16 16 17 16 16 16 16 4 2 6 3 6 5 6 4 5 3 3 1 2 1 3 2 2 1 1 4 5 2 6 2 5 4 14 18 20 20 18
19 19 19 19 20 20 21 19 17 15 15 14 12 12 2 4 1 1 7 5 6 5 3 5 3 2 2 2 1 3 3 2 2 3 4 4 4 1 3 11 16 18 18 17 18
21 21 22 22 22 21 22 21 19 17 14 11 7 2 2 12 2 9 6 2 2 4 2 3 2 3 4 3 3 3 2 3 1 2 3 3 3 0 10 12 16 16 15 15 16
20 21 24 24 24 25 24 23 21 18 12 7 4 2 6 3 3 9 3 2 5 6 4 4 1 6 1 6 2 1 1 2 2 2 1 4 3 2 12 13 14 14 14 14 17
21 23 23 23 24 27 27 25 19 6 5 7 2 2 7 8 3 1 5 3 3 2 1 2 1 3 4 3 2 3 4 2 1 3 3 5 3 6 12 11 12 13 14 14 15
22 22 22 24 25 27 28 19 4 1 3 2 1 3 5 1 3 4 2 3 2 2 3 1 2 1 2 2 6 7 6 2 4 1 6 4 6 8 14 13 13 13 14 15 18
22 22 23 25 28 26 11 1 2 2 2 5 2 3 4 8 3 1 2 6 4 2 5 1 5 7 4 6 3 0 4 2 1 4 3 6 8 10 14 14 14 13 14 15 18
22 23 23 26 27 17 4 2 6 2 7 7 12 9 5 3 4 3 2 7 5 5 4 4 9 5 2 2 1 3 4 4 2 4 3 3 10 8 14 18 17 17 17 19 18
21 22 24 28 28 2 3 3 2 2 3 4 3 4 3 8 5 5 7 5 5 7 9 10 6 4 3 1 3 2 5 3 4 5 1 6 5 7 11 15 14 18 19 18 19
22 21 24 33 3 4 1 1 9 4 2 2 1 0 4 5 5 6 7 3 3 11 10 8 4 5 2 6 3 6 7 2 3 2 3 3 4 4 9 14 18 17 18 20 20
22 20 22 9 7 3 1 8 1 3 1 3 2 1 2 4 1 5 1 3 8 7 7 9 9 8 8 4 4 2 4 1 2 1 3 2 4 2 0 8 16 19 21 19 18
23 19 16 1 2 5 7 7 3 2 2 3 2 2 6 3 1 2 3 2 3 5 2 4 1 4 12 2 4 7 5 3 0 2 3 4 3 3 5 5 4 9 14 15 13
25 21 8 3 2 4 7 2 2 3 3 4 3 1 4 7 3 4 9 10 9 10 8 2 4 1 3 4 4 5 4 3 3 2 3 3 4 9 8 7 6 8 5 4 7
29 24 3 5 4 7 2 2 3 1 3 3 5 1 6 8 6 3 7 11 2 4 5 11 12 8 5 8 4 6 5 4 3 2 4 1 4 4 2 1 4 6 3 1 1
27 1 2 1 5 2 3 4 2 4 2 8 6 2 3 4 5 8 6 12 10 8 9 8 12 2 6 5 5 4 5 2 3 1 5 2 5 12 9 7 10 8 4 1 4
5 4 2 5 6 3 2 3 3 4 3 2 3 2 3 1 5 10 10 7 8 13 7 7 5 9 5 6 4 4 9 3 1 4 6 4 5 8 11 8 5 7 4 6 9
2 1 6 3 2 1 4 4 5 5 5 2 1 5 3 2 2 4 7 5 9 12 8 9 3 3 4 11 12 5 4 3 1 3 6 7 7 6 10 8 6 7 2 7 9
3 1 4 3 2 1 2 3 1 3 3 5 3 7 4 2 3 4 8 8 8 14 13 8 8 7 9 3 3 3 7 8 6 4 2 3 10 2 8 6 6 8 6 6 6
4 2 1 3 2 2 1 2 3 2 4 2 4 7 3 4 3 5 5 2 12 14 17 10 8 7 6 3 2 6 5 4 3 2 7 6 10 3 3 3 7 9 7 7 7
2 1 1 1 0 1 1 1 3 4 6 5 5 3 3 4 7 3 2 0 8 7 4 15 6 13 11 11 6 7 7 9 10 4 4 8 14 16 10 8 8 10 9 8 9
1 1 2 2 3 3 2 1 4 3 4 3 3 6 3 4 3 5 4 1 1 7 4 10 11 10 12 7 5 5 9 12 12 10 7 8 7 15 14 9 14 15 12 11 12
2 2 2 1 2 3 2 4 5 3 3 3 3 9 6 6 2 1 4 1 3 3 5 3 4 6 6 7 7 5 6 9 11 5 12 13 15 14 8 6 10 18 16 15 14
1 1 2 1 1 2 3 3 3 2 4 9 9 10 7 5 8 12 10 8 6 4 3 5 5 4 4 5 9 5 12 12 9 8 11 8 9 4 6 7 8 14 17 16 17
Wind_Direction
359 355 354 348 346 343 340 337 336 335 331 330 329 331 341 338 322 278 277 242 89 168 126 146 211 198 193 231 213 166 245 356 153 170 145 153 131 158 95 139 104 356 146 141 154
3 358 354 349 345 342 338 333 333 332 329 328 326 328 337 338 318 286 255 292 219 173 138 180 247 162 231 239 136 217 11 13 23 134 234 196 158 153 163 155 89 80 107 133 149
6 2 356 351 345 341 336 331 329 327 324 322 323 326 331 328 303 251 319 300 187 189 235 182 239 186 252 200 148 131 353 125 90 312 240 230 166 157 153 223 193 154 146 150 159
4 2 357 349 344 341 336 328 323 321 320 319 321 324 322 289 170 338 341 81 169 199 263 218 228 194 251 204 116 173 102 54 105 23 132 176 160 138 166 201 195 157 159 158 168
359 356 351 345 341 334 333 328 321 316 314 314 318 324 322 329 252 230 21 56 155 195 229 219 253 154 284 146 164 99 71 169 208 33 55 204 202 159 171 73 133 150 161 168 174
357 353 349 343 337 333 329 326 320 310 304 304 311 315 290 261 349 244 338 335 205 214 216 207 234 156 122 128 57 70 151 201 236 74 55 160 121 126 126 129 139 160 173 174 180
352 350 347 341 335 330 327 324 317 307 295 288 287 275 218 247 139 310 303 249 241 222 264 243 235 199 133 126 100 107 217 176 329 91 84 155 170 167 152 150 151 169 178 186 189
349 344 335 334 333 327 324 321 314 305 284 263 233 210 250 219 276 287 241 242 235 257 254 306 178 101 96 126 72 45 86 339 59 184 34 198 245 138 166 161 162 177 188 192 195
342 336 333 336 331 325 321 316 312 329 125 143 160 231 261 314 237 245 214 148 162 186 220 130 151 76 145 142 162 16 341 294 313 204 152 205 259 189 182 186 172 179 195 207 210
332 330 333 336 329 327 319 306 273 281 155 191 251 270 261 10 306 316 177 173 147 119 146 200 73 157 114 253 322 323 321 282 272 185 215 207 243 189 196 199 197 188 197 211 220
332 331 335 334 328 330 335 136 253 168 191 228 178 271 289 317 272 324 53 148 122 140 195 27 219 238 265 249 27 31 296 272 216 183 219 251 263 213 202 215 209 208 210 212 222
331 330 337 333 326 323 296 55 90 29 299 243 252 269 271 332 304 273 195 176 160 183 151 178 218 215 240 41 234 221 243 231 212 173 234 283 265 227 211 220 223 215 215 218 222
331 330 338 332 325 331 330 119 36 318 267 292 216 233 235 178 219 245 188 161 160 163 189 209 195 145 188 237 255 222 243 226 323 157 159 289 267 230 219 228 236 238 237 233 224
328 329 339 330 271 338 307 122 326 211 302 272 247 287 163 178 226 203 196 179 153 209 173 221 183 229 223 274 242 275 230 234 250 247 324 333 302 248 216 228 229 236 231 236 233
323 325 335 337 308 264 54 317 288 212 277 6 125 76 116 211 44 179 159 113 172 168 188 190 175 198 241 287 193 326 115 152 237 247 286 47 268 271 126 247 243 234 235 236 243
317 321 336 174 237 264 314 313 206 252 255 34 120 164 156 223 252 101 149 76 88 142 186 173 246 197 230 114 178 143 116 96 95 297 259 27 306 256 210 227 209 230 240 235 237
315 312 306 251 266 330 307 207 251 229 331 26 357 272 215 191 201 176 175 175 188 185 183 155 195 182 209 191 128 206 227 278 241 216 322 11 251 269 260 252 250 279 259 218 228
319 315 202 218 278 342 220 177 232 301 304 311 317 282 200 168 210 162 163 187 163 172 176 204 210 193 168 220 235 197 232 253 290 311 335 120 249 282 265 224 222 243 245 316 188
320 332 242 289 242 243 205 195 230 210 310 327 316 73 197 203 218 192 199 207 200 184 208 190 223 186 213 208 204 164 211 333 193 165 273 301 272 275 274 255 241 251 261 44 97
324 321 355 346 162 198 177 223 227 221 307 291 320 356 337 294 204 193 193 192 203 195 197 192 204 205 165 139 72 237 137 175 210 251 265 258 277 269 297 298 206 240 228 130 106
309 283 8 116 213 192 196 222 236 240 231 290 286 306 259 291 235 206 200 220 215 185 194 173 250 139 168 202 194 160 186 81 160 253 272 282 278 218 256 284 215 216 187 145 140
329 178 20 267 149 355 192 208 298 271 206 264 255 239 242 244 253 225 221 240 175 160 180 190 210 226 201 99 350 240 226 193 241 212 242 306 273 163 264 282 221 195 156 146 143
350 304 63 300 192 178 237 254 250 257 252 213 255 226 199 256 253 221 206 215 163 163 171 173 214 200 205 174 176 222 184 186 143 155 220 262 272 107 296 255 218 180 175 155 139
302 158 102 73 35 124 103 281 275 228 253 247 269 251 268 259 228 277 250 28 187 207 138 164 170 211 225 214 173 186 192 197 210 197 190 240 278 288 263 232 193 208 182 164 152
351 49 0 193 203 218 219 279 275 283 224 235 243 245 315 280 209 215 247 235 98 131 148 191 206 199 220 227 203 197 192 185 205 221 224 305 246 279 283 269 199 190 181 171 161
340 335 354 285 283 211 201 218 228 264 255 229 245 328 299 225 324 329 341 261 56 170 152 194 175 190 224 203 206 231 211 201 231 253 254 267 277 273 291 273 192 186 179 178 171
26 239 280 84 177 189 216 244 245 2 249 254 294 318 287 222 307 285 265 281 284 321 138 162 155 168 229 167 163 218 227 215 226 215 233 226 248 269 264 253 223 207 188 175 177